Powrót do katalogu

CARTOSAT 2B

AktywnyNaukaSSO
NORAD 36795·PAYLOAD·🇮🇳 India

Wystrzelony Jul 12, 2010 z Satish Dhawan Space Centre

Loading…

Następne Przeloty (najbliższe 24 godziny)

TLE

ŚwieżeSource: Space-Track

Epoka: Sep 14, 2026, 14:19 UTC

1 36795U 10035A   26257.59717228  .00000525  00000-0  78862-4 0  9999
2 36795  97.9867 307.5336 0010026 262.7025  97.3046 14.78624847873062

Śledź CARTOSAT 2B w czasie rzeczywistym z AllMySat

Download on the App Store